Location: Kunchanapalle
(16.4623°N, 80.6176°E)
Time: 09:32:25
(UTC+00:00)

NOSS 3-4 (C) - Pass Details

Date: 13 August 2020
Orbit: 885 x 1327 km, 63.4° (Epoch: 18 September)

Event Time Altitude Azimuth Distance (km) Brightness Sun altitude
Exits shadow 23:37:23 12° 233° (SW) 2,389 4.9 -10.9°
Maximum altitude 23:42:15 37° 298° (WNW) 1,345 3.9 -9.8°
Drops below altitude 10° 23:47:39 10° 4° (N) 2,572 6.0 -8.6°
Sets 23:50:24 0° 13° (NNE) 3,547 6.9 -8.0°
